User: anonymous   Login
Location: Melbourne
(37.8170°S, 144.9670°E)
Time: 21:27:28
(UTC+11:00)
Language:

CZ-3 R/B - Orbit

View from above orbital plane
View from above orbital plane
View from above satellite
View from above satellite

Ground track
Ground track

The orbit data is extracted from the following two-line orbital elements,

1 29517U 06048B   17079.94220453 +.00012962 +00000-0 +50320-3 0  9998
2 29517 028.4375 300.9231 4387178 015.6890 354.4716 06.77843106161550
Epoch (UTC): 20 March 2017 22:36:46
Eccentricity: 0.4387178
inclination: 28.4375°
perigee height: 241 km
apogee height: 10589 km
right ascension of ascending node: 300.9231°
argument of perigee: 15.6890°
revolutions per day: 6.77843106
mean anomaly at epoch: 354.4716°
orbit number at epoch: 16155

The dashed part of the orbit path shows where the satellite is in the earth's shadow,  

DLR